Date String (YYYY-MM-DD hh:mm:ss) UTC,Instrument flags,Ambient pressure (hPa),Sample flow (lpm),Bypass flow (lpm),Sample temperature (°C),Ambient temperature (°C),ASC tube jacket temperature (°C),LED temperature (°C),Box temperature (°C),Sample RH (%),Span deviation,Mass concentration (μg/m³),Mass concentration (μg/m³),Mass concentration (μg/m³)
DateTimeUTC,F1_M11,P_M11,Q1_M11,Q2_M11,T1_M11,T2_M11,T3_M11,T4_M11,T5_M11,U1_M11,ZSPAN_M11,X0_M11,X2_M11,X1_M11
2023-05-25 02:00:00,,0830.2,4.99,0.00,29.5,27.8,00.0,37.8,31.1,32.8,0003.5,0015.87,0009.48,0008.57
2023-05-25 02:01:00,,0830.3,5.00,0.00,29.5,27.8,00.0,37.8,31.1,32.0,0003.4,0015.75,0009.38,0008.44
2023-05-25 02:02:00,,0830.4,5.00,0.00,29.5,27.9,00.0,37.8,31.1,31.2,0003.3,0016.43,0009.35,0008.37
2023-05-25 02:03:00,,0830.4,5.00,0.00,29.5,28.0,00.0,37.8,31.2,31.5,0003.4,0016.64,0009.23,0008.25
2023-05-25 02:04:00,,0830.4,4.99,0.00,29.5,28.0,00.0,37.9,31.2,31.8,0003.3,0016.64,0009.17,0008.18
2023-05-25 02:05:00,,0830.5,5.01,0.00,29.6,28.1,00.0,37.9,31.2,31.6,0003.4,0016.68,0009.17,0008.17
2023-05-25 02:06:00,,0830.4,5.00,0.00,29.6,28.1,00.0,37.9,31.2,31.4,0003.2,0016.56,0009.15,0008.18
2023-05-25 02:07:00,,0830.4,5.00,0.00,29.6,28.2,00.0,37.9,31.3,31.1,0003.2,0016.44,0009.11,0008.15
2023-05-25 02:08:00,,0830.5,5.00,0.00,29.6,28.2,00.0,37.9,31.3,30.7,0003.3,0016.30,0009.10,0008.12
2023-05-25 02:09:00,,0830.5,5.01,0.00,29.6,28.3,00.0,37.9,31.3,30.1,0003.2,0016.76,0009.09,0008.12
2023-05-25 02:10:00,,0830.6,5.00,0.00,29.7,28.3,00.0,37.9,31.3,30.0,0003.2,0016.91,0009.07,0008.12
2023-05-25 02:11:00,,0830.6,5.00,0.00,29.7,28.3,00.0,38.0,31.3,29.0,0003.3,0016.77,0009.06,0008.13
2023-05-25 02:12:00,,0830.6,5.00,0.00,29.7,28.3,00.0,38.0,31.4,28.4,0003.2,0016.77,0009.02,0008.12
2023-05-25 02:13:00,,0830.7,5.00,0.00,29.7,28.3,00.0,38.0,31.4,28.7,0003.3,0016.39,0008.97,0008.09
2023-05-25 02:14:00,,0830.7,4.99,0.00,29.7,28.4,00.0,38.0,31.4,28.8,0003.2,0015.77,0008.96,0008.10
2023-05-25 02:15:00,,0830.8,5.00,0.00,29.8,28.4,00.0,38.0,31.4,29.5,0003.3,0015.83,0009.01,0008.14
2023-05-25 02:16:00,,0830.8,5.00,0.00,29.8,28.4,00.0,38.0,31.4,29.9,0003.5,0015.83,0009.02,0008.16
2023-05-25 02:17:00,,0830.9,5.00,0.00,29.8,28.4,00.0,38.1,31.4,29.7,0003.7,0015.79,0009.01,0008.17
2023-05-25 02:18:00,,0830.9,5.00,0.00,29.8,28.4,00.0,38.1,31.4,29.4,0003.8,0015.89,0009.08,0008.24
2023-05-25 02:19:00,,0831.0,5.00,0.00,29.8,28.4,00.0,38.1,31.4,29.4,0003.7,0015.78,0009.12,0008.30
2023-05-25 02:20:00,,0830.9,5.00,0.00,29.8,28.4,00.0,38.1,31.5,30.0,0003.8,0015.50,0009.16,0008.37
2023-05-25 02:21:00,,0830.9,5.00,0.00,29.8,28.4,00.0,38.1,31.5,29.7,0003.7,0015.47,0009.26,0008.45
2023-05-25 02:22:00,,0830.9,5.00,0.00,29.8,28.4,00.0,38.1,31.5,30.0,0003.7,0015.38,0009.28,0008.51
2023-05-25 02:23:00,,0830.9,4.99,0.00,29.8,28.4,00.0,38.1,31.5,29.9,0003.7,0016.07,0009.33,0008.57
2023-05-25 02:24:00,,0830.9,5.00,0.00,29.8,28.4,00.0,38.1,31.5,30.0,0003.6,0016.04,0009.40,0008.65
2023-05-25 02:25:00,,0830.9,5.00,0.00,29.9,28.4,00.0,38.2,31.5,30.1,0003.6,0016.07,0009.46,0008.70
2023-05-25 02:26:00,,0831.0,5.00,0.00,29.9,28.4,00.0,38.2,31.5,30.1,0003.6,0016.09,0009.50,0008.73
2023-05-25 02:27:00,,0831.0,5.01,0.00,29.9,28.4,00.0,38.2,31.5,29.7,0003.5,0016.23,0009.58,0008.80
2023-05-25 02:28:00,,0831.0,5.00,0.00,29.9,28.4,00.0,38.2,31.5,29.6,0003.3,0016.49,0009.72,0008.92
2023-05-25 02:29:00,,0831.1,5.00,0.00,29.9,28.4,00.0,38.2,31.5,29.8,0003.3,0016.57,0009.79,0009.00
2023-05-25 02:30:00,,0831.1,5.00,0.00,29.9,28.4,00.0,38.2,31.5,29.3,0003.3,0016.69,0009.89,0009.12
2023-05-25 02:31:00,,0831.0,5.01,0.00,29.9,28.5,00.0,38.2,31.5,28.1,0003.3,0016.89,0010.10,0009.31
2023-05-25 02:32:00,,0831.0,5.00,0.00,29.9,28.4,00.0,38.2,31.5,27.3,0003.3,0016.93,0010.30,0009.55
2023-05-25 02:33:00,,0831.0,4.99,0.00,29.9,28.4,00.0,38.2,31.5,26.1,0003.3,0017.67,0010.59,0009.80
2023-05-25 02:34:00,,0831.0,5.00,0.00,29.9,28.4,00.0,38.2,31.5,25.5,0003.3,0017.72,0010.89,0010.09
2023-05-25 02:35:00,,0831.0,5.00,0.00,29.9,28.4,00.0,38.2,31.5,25.4,0003.4,0018.01,0011.19,0010.37
2023-05-25 02:36:00,,0831.1,5.00,0.00,29.9,28.4,00.0,38.3,31.5,25.9,0003.5,0018.37,0011.48,0010.66
2023-05-25 02:37:00,,0831.1,4.99,0.00,29.9,28.4,00.0,38.3,31.5,25.9,0003.6,0018.63,0011.73,0010.93
2023-05-25 02:38:00,,0831.1,4.99,0.00,29.9,28.4,00.0,38.3,31.5,25.9,0003.6,0018.74,0011.94,0011.14
2023-05-25 02:39:00,,0831.1,5.00,0.00,29.9,28.4,00.0,38.3,31.5,26.1,0003.6,0018.87,0012.14,0011.39
2023-05-25 02:40:00,,0831.1,5.01,0.00,29.9,28.4,00.0,38.3,31.5,26.3,0003.7,0018.96,0012.33,0011.64
2023-05-25 02:41:00,,0831.0,5.00,0.00,29.9,28.4,00.0,38.3,31.5,26.1,0003.7,0019.26,0012.57,0011.87
2023-05-25 02:42:00,,0831.0,5.00,0.00,29.9,28.4,00.0,38.3,31.5,26.2,0003.7,0019.50,0012.75,0012.05
2023-05-25 02:43:00,,0831.0,5.00,0.00,29.9,28.4,00.0,38.3,31.5,26.1,0003.8,0019.62,0012.95,0012.19
2023-05-25 02:44:00,,0831.0,5.00,0.00,30.0,28.5,00.0,38.3,31.6,26.1,0003.7,0019.40,0013.08,0012.30
2023-05-25 02:45:00,,0831.0,5.00,0.00,30.0,28.5,00.0,38.3,31.6,26.1,0003.8,0019.16,0013.18,0012.40
2023-05-25 02:46:00,,0831.0,5.00,0.00,30.0,28.5,00.0,38.3,31.6,25.9,0003.8,0019.15,0013.27,0012.49
2023-05-25 02:47:00,,0831.0,4.99,0.00,30.0,28.5,00.0,38.3,31.6,25.9,0003.8,0019.40,0013.37,0012.58
2023-05-25 02:48:00,,0831.0,5.00,0.00,30.0,28.5,00.0,38.3,31.6,25.9,0003.7,0020.02,0013.52,0012.66
2023-05-25 02:49:00,,0831.0,4.99,0.00,30.0,28.0,00.0,38.3,31.5,25.9,0003.6,0020.43,0013.60,0012.74
2023-05-25 02:50:00,,0831.0,5.00,0.00,30.0,26.2,00.0,38.2,31.3,26.0,0003.6,0020.63,0013.68,0012.79
2023-05-25 02:51:00,,0831.0,5.00,0.00,29.9,25.3,00.0,38.1,31.2,25.9,0003.6,0020.79,0013.75,0012.85
2023-05-25 02:52:00,,0831.0,5.01,0.00,29.8,25.4,00.0,38.1,31.0,26.5,0003.6,0020.84,0013.80,0012.90
2023-05-25 02:53:00,,0831.0,5.01,0.00,29.7,25.7,00.0,38.1,31.0,26.5,0003.7,0020.84,0013.83,0012.95
2023-05-25 02:54:00,,0831.0,5.00,0.00,29.6,26.1,00.0,38.1,31.0,26.4,0003.8,0020.89,0013.85,0012.98
2023-05-25 02:55:00,,0831.0,4.99,0.00,29.6,26.4,00.0,38.0,31.0,26.4,0003.9,0020.97,0013.85,0012.99
2023-05-25 02:56:00,,0831.0,5.00,0.00,29.6,26.7,00.0,38.0,31.0,26.3,0003.8,0020.93,0013.85,0013.00
2023-05-25 02:57:00,,0830.9,4.99,0.00,29.6,27.0,00.0,38.0,31.1,26.2,0003.8,0020.84,0013.82,0013.00
2023-05-25 02:58:00,,0831.0,5.01,0.00,29.5,27.2,00.0,38.0,31.1,26.1,0003.8,0020.65,0013.74,0012.97
2023-05-25 02:59:00,,0831.0,5.00,0.00,29.6,27.4,00.0,38.0,31.1,25.9,0004.0,0020.63,0013.70,0012.99
